This is the latest recevied weather packets stored in our database for station/object AB4KN. If no packets are shown the sender has not sent any weather packets the latest 10 day(s).
| Time | Temp. | Humidity | Pressure | Rain* | Wind** | Luminosity | Snow |
|---|---|---|---|---|---|---|---|
| 1778014238 | 26.67° C | 34% | 1018.7 hPa | 0 mm | - | 25 W/m² | - |
| 1778013936 | 26.11° C | 34% | 1018.8 hPa | 0 mm | - | 27 W/m² | - |
| 1778013633 | 26.11° C | 34% | 1018.8 hPa | 0 mm | - | 26 W/m² | - |
| 1778013329 | 26.11° C | 36% | 1019.1 hPa | 0 mm | - | 25 W/m² | - |
| 1778013027 | 26.11° C | 34% | 1019 hPa | 0 mm | - | 26 W/m² | - |
| 1778012722 | 26.11° C | 34% | 1019.3 hPa | 0 mm | - | 27 W/m² | - |
| 1778012418 | 26.11° C | 34% | 1018.9 hPa | 0 mm | - | 27 W/m² | - |
| 1778012116 | 26.11° C | 33% | 1019 hPa | 0 mm | - | 28 W/m² | - |
| 1778011813 | 26.11° C | 33% | 1019.1 hPa | 0 mm | - | 26 W/m² | - |
| 1778011511 | 26.11° C | 34% | 1019.3 hPa | 0 mm | - | 32 W/m² | - |
| 1778011208 | 26.11° C | 36% | 1019.4 hPa | 0 mm | - | 28 W/m² | - |
| 1778010904 | 26.11° C | 35% | 1019.6 hPa | 0 mm | - | 29 W/m² | - |
| 1778010601 | 26.11° C | 35% | 1019.5 hPa | 0 mm | - | 28 W/m² | - |
| 1778010299 | 26.11° C | 32% | 1019.8 hPa | 0 mm | - | 30 W/m² | - |
| 1778009998 | 26.11° C | 35% | 1019.6 hPa | 0 mm | - | 29 W/m² | - |
| 1778009696 | 26.11° C | 35% | 1019.7 hPa | 0 mm | - | 29 W/m² | - |
| 1778009387 | 25.56° C | 33% | 1019.7 hPa | 0 mm | - | 35 W/m² | - |
| 1778009086 | 25.56° C | 35% | 1019.8 hPa | 0 mm | - | 34 W/m² | - |
| 1778008783 | 25.56° C | 36% | 1019.6 hPa | 0 mm | - | 36 W/m² | - |
| 1778008482 | 25.56° C | 35% | 1019.7 hPa | 0 mm | - | 39 W/m² | - |
| 1778008178 | 25.56° C | 36% | 1019.7 hPa | 0 mm | - | 40 W/m² | - |
| 1778007873 | 25.56° C | 36% | 1019.9 hPa | 0 mm | - | 46 W/m² | - |
| 1778007569 | 25.56° C | 36% | 1020.1 hPa | 0 mm | - | 36 W/m² | - |
| 1778007267 | 25.56° C | 37% | 1020.1 hPa | 0 mm | - | 63 W/m² | - |
| 1778006963 | 25.56° C | 38% | 1020.4 hPa | 0 mm | - | 46 W/m² | - |
* Rain latest hour (hover to see other rain measurements)
** Current wind speed in m/s (hover to see current wind gust speed)